LUCKY-7

Last updated on Tue Dec 17 2024 00:03:40 GMT+0000 (Coordinated Universal Time)

1 44406U 19038W 24351.46241856 .09338097 27923-5 71786-3 0 9999 2 44406 97.6684 5.7854 0006976 230.2987 129.7697 16.40411817302838

Satellite not in orbit